Orbital Elements at Epoch 2459000.5 (2020-May-31.0) TDB
Reference: JPL 16 (heliocentric ecliptic J2000)
Element | Value | Uncertainty (1-sigma) | Units |
e | .126379627943995 | 4.9452e-08 | |
a | 2.379084195566313 | 1.1855e-08 | au |
q | 2.078416420083204 | 1.1567e-07 | au |
i | 6.64820273742288 | 4.8726e-06 | deg |
node | 310.302588303327 | 4.1956e-05 | deg |
peri | 71.88858695169455 | 4.6467e-05 | deg |
M | 105.0121877679278 | 1.9624e-05 | deg |
tp | 2458609.523773724667 (2019-May-06.02377372) | 7.2479e-05 | TDB |
period | 1340.334340716474 3.67 | 1.0019e-05 2.743e-08 | d yr |
n | .2685897011394654 | 2.0076e-09 | deg/d |
Q | 2.679751971049423 | 1.3353e-08 | au |
|
| | Orbit Determination Parameters
Additional Information
|